Change the Weather History Date:

Saturday, November 30, 2013

  Actual Average Record
Temperature  
Mean Temperature 15 °F -  
Max Temperature 27 °F - 66 °F (2006)
Min Temperature 3 °F - 3 °F (2013)
Degree Days  
Heating Degree Days 50    
Month to date heating degree days 907  
Since 1 July heating degree days 1720  
Cooling Degree Days 0    
Month to date cooling degree days 0  
Year to date cooling degree days 449  
Moisture  
Dew Point 5 °F    
Average Humidity 69    
Maximum Humidity 91    
Minimum Humidity 46    
Precipitation  
Precipitation 0.00 in - 1.79 in (2005)
Month to date precipitation 2.36  
Year to date precipitation 23.49  
Sea Level Pressure  
Sea Level Pressure 30.59 in    
Wind  
Wind Speed 10 mph (SE)    
Max Wind Speed 20 mph    
Max Gust Speed 17 mph    
Visibility 10 miles    
Events      
T = Trace of Precipitation, MM = Missing Value Source: NWS Daily Summary

Daily Weather History Graph

Daily Weather History Graph

Search for Another Location

Airport or City:

Trip Planner

Search our weather history database for the weather conditions in past years. The results will help you decide how hot, cold, wet, or windy it might be!

Date:

Astronomy

Nov. 30, 2013 Rise Set
Actual Time 7:04 AM EST 4:16 PM EST
Civil Twilight 6:32 AM EST 4:48 PM EST
Nautical Twilight 5:56 AM EST 5:24 PM EST
Astronomical Twilight 5:22 AM EST 5:58 PM EST
Moon 4:07 AM EST (11/30) 2:42 PM EST (11/30)
Length of Visible Light 10h 16m
Length of Day
9h 12m
Waning Crescent, 7% of the Moon is Illuminated
Nov 30
Waning Crescent
Dec 2
New
Dec 9
First Quarter
Dec 17
Full
Dec 25
Last Quarter

Hourly Weather History & Observations

Time (EST) Temp. Windchill Dew Point Humidity Pressure Visibility Wind Dir Wind Speed Gust Speed Precip Events Conditions
12:15 AM 6.8 °F -7.8 °F 1.4 °F 79% 30.71 in 10.0 mi ESE 10.4 mph - N/A   Clear
12:35 AM 6.8 °F -7.8 °F 1.4 °F 79% 30.71 in 10.0 mi SE 10.4 mph - N/A   Clear
12:55 AM 6.8 °F -7.8 °F 1.4 °F 79% 30.71 in 10.0 mi ESE 10.4 mph - N/A   Clear
1:15 AM 6.8 °F -7.8 °F 3.2 °F 85% 30.71 in 10.0 mi SE 10.4 mph - N/A   Clear
1:35 AM 6.8 °F -4.8 °F 1.4 °F 79% 30.71 in 10.0 mi SE 6.9 mph - N/A   Clear
1:55 AM 6.8 °F -7.8 °F 1.4 °F 79% 30.72 in 10.0 mi ESE 10.4 mph - N/A   Clear
2:15 AM 5.0 °F -8.1 °F 1.4 °F 85% 30.72 in 10.0 mi ESE 8.1 mph - N/A   Clear
2:35 AM 6.8 °F -7.8 °F 1.4 °F 79% 30.72 in 10.0 mi SE 10.4 mph - N/A   Clear
2:55 AM 5.0 °F -6.9 °F 1.4 °F 85% 30.72 in 10.0 mi SE 6.9 mph - N/A   Clear
3:15 AM 5.0 °F -6.9 °F 1.4 °F 85% 30.73 in 10.0 mi ESE 6.9 mph - N/A   Clear
3:35 AM 5.0 °F -8.1 °F -0.4 °F 78% 30.72 in 10.0 mi ESE 8.1 mph - N/A   Clear
3:55 AM 5.0 °F -6.9 °F -0.4 °F 78% 30.72 in 10.0 mi SE 6.9 mph - N/A   Clear
4:15 AM 5.0 °F -8.1 °F -0.4 °F 78% 30.72 in 10.0 mi SE 8.1 mph - N/A   Clear
4:35 AM 3.2 °F -11.3 °F -0.4 °F 85% 30.72 in 10.0 mi ESE 9.2 mph - N/A   Clear
4:55 AM 5.0 °F -8.1 °F -0.4 °F 78% 30.72 in 10.0 mi SE 8.1 mph - N/A   Clear
5:15 AM 3.2 °F -10.3 °F -0.4 °F 85% 30.72 in 10.0 mi ESE 8.1 mph - N/A   Clear
5:35 AM 3.2 °F -9.1 °F -0.4 °F 85% 30.72 in 10.0 mi SE 6.9 mph - N/A   Clear
5:55 AM 3.2 °F -7.8 °F 1.4 °F 92% 30.72 in 10.0 mi SE 5.8 mph - N/A   Clear
6:15 AM 3.2 °F -11.3 °F -0.4 °F 85% 30.72 in 10.0 mi ESE 9.2 mph - N/A   Clear
6:35 AM 5.0 °F -8.1 °F -0.4 °F 78% 30.72 in 10.0 mi SE 8.1 mph - N/A   Clear
6:55 AM 3.2 °F -11.3 °F -0.4 °F 85% 30.72 in 10.0 mi SE 9.2 mph - N/A   Clear
7:15 AM 5.0 °F -10.0 °F 1.4 °F 85% 30.72 in 10.0 mi SE 10.4 mph - N/A   Clear
7:35 AM 5.0 °F -8.1 °F -0.4 °F 78% 30.73 in 10.0 mi SE 8.1 mph - N/A   Clear
7:55 AM 6.8 °F -8.6 °F 1.4 °F 79% 30.73 in 10.0 mi ESE 11.5 mph - N/A   Clear
8:15 AM 6.8 °F -2.0 °F 3.2 °F 85% 30.73 in 10.0 mi SE 4.6 mph - N/A   Clear
8:35 AM 8.6 °F -2.6 °F 3.2 °F 79% 30.72 in 10.0 mi SE 6.9 mph - N/A   Clear
8:55 AM 10.4 °F 2.2 °F 5.0 °F 79% 30.72 in 10.0 mi South 4.6 mph - N/A   Clear
9:15 AM 10.4 °F - 6.8 °F 85% 30.72 in 10.0 mi Calm Calm - N/A   Clear
9:35 AM 12.2 °F 4.3 °F 8.6 °F 85% 30.71 in 10.0 mi South 4.6 mph - N/A   Clear
9:55 AM 17.6 °F 8.2 °F 6.8 °F 63% 30.71 in 10.0 mi South 6.9 mph - N/A   Clear
10:15 AM 17.6 °F 9.3 °F 6.8 °F 63% 30.70 in 10.0 mi South 5.8 mph - N/A   Clear
10:35 AM 19.4 °F 14.3 °F 8.6 °F 63% 30.68 in 10.0 mi South 3.5 mph - N/A   Clear
10:55 AM 21.2 °F 13.6 °F 8.6 °F 58% 30.68 in 10.0 mi West 5.8 mph - N/A   Clear
11:15 AM 21.2 °F 13.6 °F 8.6 °F 58% 30.65 in 10.0 mi South 5.8 mph - N/A   Clear
11:35 AM 21.2 °F - 6.8 °F 54% 30.64 in 10.0 mi Calm Calm - N/A   Clear
11:55 AM 23.0 °F 15.8 °F 6.8 °F 50% 30.63 in 10.0 mi SSE 5.8 mph - N/A   Clear
12:15 PM 24.8 °F 16.1 °F 6.8 °F 46% 30.61 in 10.0 mi SE 8.1 mph - N/A   Clear
12:35 PM 24.8 °F 12.9 °F 8.6 °F 50% 30.60 in 10.0 mi ESE 13.8 mph - N/A   Clear
12:55 PM 24.8 °F 14.6 °F 6.8 °F 46% 30.59 in 10.0 mi SE 10.4 mph - N/A   Clear
1:15 PM 24.8 °F 15.3 °F 6.8 °F 46% 30.58 in 10.0 mi SE 9.2 mph - N/A   Clear
1:35 PM 24.8 °F 14.6 °F 6.8 °F 46% 30.56 in 10.0 mi SE 10.4 mph - N/A   Clear
1:55 PM 24.8 °F 14.0 °F 6.8 °F 46% 30.55 in 10.0 mi ESE 11.5 mph - N/A   Scattered Clouds
2:15 PM 26.6 °F 16.2 °F 6.8 °F 43% 30.54 in 10.0 mi SE 11.5 mph - N/A   Overcast
2:35 PM 26.6 °F 15.7 °F 6.8 °F 43% 30.53 in 10.0 mi SSE 12.7 mph - N/A   Mostly Cloudy
2:55 PM 26.6 °F 16.8 °F 8.6 °F 47% 30.53 in 10.0 mi SSE 10.4 mph - N/A   Overcast
3:15 PM 26.6 °F 16.8 °F 6.8 °F 43% 30.52 in 10.0 mi SE 10.4 mph - N/A   Overcast
3:35 PM 26.6 °F 16.2 °F 6.8 °F 43% 30.51 in 10.0 mi SE 11.5 mph - N/A   Mostly Cloudy
3:55 PM 24.8 °F 14.0 °F 6.8 °F 46% 30.51 in 10.0 mi SSE 11.5 mph - N/A   Mostly Cloudy
4:15 PM 24.8 °F 14.0 °F 6.8 °F 46% 30.50 in 10.0 mi SE 11.5 mph - N/A   Mostly Cloudy
4:35 PM 24.8 °F 15.3 °F 6.8 °F 46% 30.50 in 10.0 mi SE 9.2 mph - N/A   Mostly Cloudy
4:55 PM 24.8 °F 14.6 °F 6.8 °F 46% 30.50 in 10.0 mi SE 10.4 mph - N/A   Scattered Clouds
5:15 PM 24.8 °F 16.1 °F 6.8 °F 46% 30.50 in 10.0 mi SSE 8.1 mph - N/A   Mostly Cloudy
5:35 PM 24.8 °F 12.4 °F 6.8 °F 46% 30.48 in 10.0 mi SE 15.0 mph - N/A   Overcast
5:55 PM 24.8 °F 13.4 °F 6.8 °F 46% 30.48 in 10.0 mi SE 12.7 mph 17.3 mph N/A   Overcast
6:15 PM 24.8 °F 13.4 °F 6.8 °F 46% 30.48 in 10.0 mi SE 12.7 mph - N/A   Overcast
6:35 PM 24.8 °F 14.0 °F 8.6 °F 50% 30.47 in 10.0 mi SE 11.5 mph 16.1 mph N/A   Overcast
6:55 PM 24.8 °F 14.0 °F 8.6 °F 50% 30.46 in 10.0 mi SE 11.5 mph 16.1 mph N/A   Overcast
7:15 PM 24.8 °F 13.4 °F 8.6 °F 50% 30.45 in 10.0 mi ESE 12.7 mph 17.3 mph N/A   Overcast
7:35 PM 24.8 °F 12.4 °F 8.6 °F 50% 30.42 in 10.0 mi ESE 15.0 mph 20.7 mph N/A   Overcast
7:55 PM 24.8 °F 10.7 °F 8.6 °F 50% 30.40 in 10.0 mi ESE 19.6 mph - N/A   Overcast
8:15 PM 24.8 °F 11.1 °F 8.6 °F 50% 30.38 in 10.0 mi ESE 18.4 mph - N/A   Overcast
8:35 PM 26.6 °F 17.5 °F 6.8 °F 43% 30.39 in 10.0 mi South 9.2 mph - N/A   Overcast
8:55 PM 26.6 °F 15.7 °F 8.6 °F 47% 30.39 in 10.0 mi SE 12.7 mph - N/A   Overcast
9:15 PM 26.6 °F 15.7 °F 8.6 °F 47% 30.38 in 10.0 mi SE 12.7 mph - N/A   Overcast
9:35 PM 26.6 °F 16.8 °F 8.6 °F 47% 30.37 in 10.0 mi SE 10.4 mph - N/A   Overcast
9:55 PM 26.6 °F 16.2 °F 8.6 °F 47% 30.37 in 10.0 mi SE 11.5 mph - N/A   Overcast
10:15 PM 26.6 °F 16.2 °F 10.4 °F 51% 30.36 in 10.0 mi SE 11.5 mph - N/A   Overcast
10:35 PM 26.6 °F 15.7 °F 10.4 °F 51% 30.36 in 10.0 mi ESE 12.7 mph - N/A   Mostly Cloudy
10:55 PM 26.6 °F 16.8 °F 10.4 °F 51% 30.35 in 10.0 mi ESE 10.4 mph - N/A   Scattered Clouds
11:15 PM 26.6 °F 15.7 °F 10.4 °F 51% 30.35 in 10.0 mi SE 12.7 mph - N/A   Mostly Cloudy
11:35 PM 26.6 °F 16.2 °F 12.2 °F 55% 30.34 in 10.0 mi ESE 11.5 mph - N/A   Mostly Cloudy
11:55 PM 26.6 °F 16.2 °F 12.2 °F 55% 30.32 in 10.0 mi ESE 11.5 mph - N/A   Partly Cloudy